Location: Lane
(33.5226°N, 79.8788°W)
Time: 11:26:27
(UTC+00:00)

Explorer 7 - Pass Details

Date: 04 October 2022
Orbit: 481 x 665 km, 50.3° (Epoch: 26 November)

Event Time Altitude Azimuth Distance (km) Brightness Sun altitude
Rises 16:17:27 0° 270° (W) 2,995 10.4 50.1°
Reaches altitude 10° 16:20:22 10° 287° (WNW) 2,086 9.6 50.3°
Maximum altitude 16:23:56 20° 335° (NNW) 1,517 8.9 50.5°
Drops below altitude 10° 16:27:29 10° 23° (NNE) 2,066 9.6 50.8°
Sets 16:30:21 0° 40° (NE) 2,957 10.3 50.9°
